Вернуться в каталог

ONEWEB-0577

АктивенСвязьPO
NORAD 56066·PAYLOAD·🇬🇧 United Kingdom

Запущен Mar 26, 2023 с Satish Dhawan Space Centre

Loading…

Ближайшие Пролёты (ближайшие 24 часа)

TLE

СвежийSource: CelesTrak SupGP

Эпоха: Sep 14, 2026, 21:40 UTC

1 56066C 23043W   26257.90331435 -.00002236  00000+0 -58568-2 0  2570
2 56066  87.9148 210.9606 0002694  91.6844 301.4509 13.16596105    19

Отслеживайте ONEWEB-0577 в реальном времени с AllMySat

Download on the App Store